Wetbulb
52.06 47.65 45.08 47.91 49.46 48.24 45.67 44.36 43.98 46.47 49.63 48.58 47.83 47.70 49.53 52.20 52.69 52.31 51.88 52.83 53.57 54.15 56.28 57.33 57.96 59.13 59.42 60.94 61.90 62.97 62.94 64.74 64.71 64.50 63.76 63.96 64.05 64.41 71.23 73.17 72.93 73.14 73.57 73.21
48.40 44.84 48.94 49.90 48.09 46.12 45.25 43.97 44.49 47.71 50.05 48.58 47.46 47.05 49.89 52.18 52.51 52.80 51.64 53.09 53.58 54.42 55.00 55.90 57.11 58.47 58.95 59.87 61.09 61.38 62.17 64.19 63.93 62.43 63.09 63.93 63.92 65.26 66.17 71.52 72.93 73.27 72.97 72.91
45.61 47.79 50.00 47.54 46.42 44.72 45.38 44.35 45.29 45.41 47.56 48.16 47.05 45.91 49.37 52.18 52.47 51.98 53.44 54.10 54.75 54.03 53.70 54.85 56.40 57.61 58.38 58.58 59.28 59.10 62.21 61.26 62.74 63.91 61.73 63.09 64.64 65.17 65.56 65.29 70.71 72.38 72.57 72.58
47.24 49.80 47.65 46.39 44.82 45.97 43.07 47.87 46.86 45.68 43.77 40.49 49.06 39.84 47.21 49.56 48.94 50.53 52.32 53.33 54.38 53.58 54.52 55.28 56.17 56.59 57.04 57.49 58.29 59.15 61.24 61.73 59.97 62.49 60.69 61.10 60.23 58.79 61.28 63.61 68.32 69.98 71.27 72.22
45.05 46.68 46.04 44.86 45.93 47.83 45.15 47.74 46.04 45.58 43.65 44.08 45.22 42.67 46.08 49.99 47.74 49.11 52.08 53.14 53.67 53.52 54.47 54.11 54.55 55.67 55.90 56.81 56.52 57.68 60.73 60.53 59.38 59.29 60.48 59.67 58.91 59.22 58.74 59.90 63.91 68.15 67.17 69.16
47.02 50.52 48.36 47.01 47.50 47.98 48.64 45.57 46.01 46.80 45.27 40.06 44.75 43.82 44.65 47.02 48.75 50.35 51.84 52.36 52.49 53.45 53.92 54.87 55.75 56.03 55.36 54.93 55.57 55.75 57.10 58.15 59.49 58.19 59.03 59.63 58.96 58.10 56.40 57.78 60.74 67.66 66.74 70.74
45.82 46.47 48.38 48.67 45.06 47.44 46.60 44.33 40.67 39.78 39.64 39.16 47.44 44.16 46.26 50.38 51.69 52.04 50.99 51.15 52.38 53.73 53.85 53.73 53.17 52.39 53.41 53.32 53.29 53.39 54.09 55.28 56.99 56.14 58.36 59.12 59.64 58.49 56.69 57.39 60.22 67.44 67.37 66.80
41.18 41.77 46.88 48.90 46.06 45.43 46.54 45.67 40.86 33.71 36.20 39.95 45.62 40.93 45.36 52.16 53.41 52.78 52.26 52.44 53.47 53.66 53.97 52.95 52.94 51.95 51.66 52.27 52.88 52.40 52.37 53.35 55.28 55.94 56.07 58.90 59.79 58.32 57.11 57.60 59.62 65.77 66.90 67.64
42.64 42.11 49.37 49.36 48.69 47.18 45.90 41.78 47.48 41.80 42.10 37.55 41.16 45.98 50.76 51.65 50.78 51.56 51.99 52.72 52.51 52.99 53.45 52.52 52.75 52.07 52.19 52.42 51.97 51.66 51.79 52.78 53.88 55.02 55.46 57.26 57.49 59.12 57.70 57.83 59.64 65.14 68.69 67.53
46.03 41.07 47.56 48.28 48.15 47.93 45.93 48.72 41.55 41.90 33.20 33.70 40.53 41.80 42.77 47.95 49.39 51.06 50.70 51.07 52.06 53.27 52.90 52.51 52.09 52.19 52.09 51.50 51.55 51.77 51.62 51.41 52.51 54.02 55.28 56.36 56.77 58.87 60.19 58.97 59.43 64.39 66.92 67.91
46.82 45.13 43.86 47.07 44.15 43.25 43.72 42.35 43.63 43.84 41.32 35.25 34.24 39.35 50.32 48.26 49.32 49.37 50.29 51.84 52.18 52.51 52.12 51.95 51.27 51.14 50.84 50.16 49.83 49.80 50.14 50.33 50.83 51.91 53.28 54.50 56.07 57.48 60.55 60.96 59.77 63.09 63.97 67.43
46.99 45.47 40.36 43.32 48.17 49.29 48.16 46.53 45.93 40.92 37.25 40.23 38.98 39.03 50.12 50.78 50.31 51.13 51.33 52.25 52.57 52.70 52.21 51.80 50.81 50.58 49.42 48.73 48.41 47.98 48.37 48.40 50.17 51.30 51.80 52.33 54.46 56.37 57.75 61.30 61.29 61.96 61.97 67.82
47.78 43.24 38.90 40.78 45.28 47.70 44.35 45.80 45.38 45.92 44.60 38.56 34.75 38.31 51.23 51.30 50.90 52.58 52.32 52.22 52.25 52.27 51.79 50.67 50.15 48.76 48.00 47.75 47.69 47.51 47.84 47.59 48.45 49.85 50.27 51.09 52.71 55.17 56.53 57.94 61.89 62.11 62.43 66.25
49.59 44.95 41.41 38.78 42.63 45.29 43.80 45.45 45.62 44.13 39.65 39.30 39.10 40.81 45.63 48.07 49.60 51.37 52.39 51.66 51.79 51.81 50.69 49.72 48.63 47.75 47.65 47.56 47.18 46.57 46.43 47.40 47.71 47.98 48.55 49.90 51.61 53.28 55.90 57.74 61.24 61.91 62.15 64.04
48.03 39.64 42.01 43.27 44.31 44.29 43.78 43.51 43.89 42.62 43.56 39.67 41.44 41.81 45.54 48.85 50.15 50.83 51.94 51.80 51.09 50.16 49.35 48.30 46.91 47.62 47.71 47.07 46.75 46.75 45.90 46.66 47.12 47.00 47.61 48.63 50.95 52.96 55.22 56.97 59.04 62.34 63.20 64.03
48.14 38.70 41.45 39.56 43.61 44.18 42.23 43.94 44.35 44.27 44.30 43.91 44.11 44.01 49.96 51.55 50.98 50.17 50.61 50.52 48.97 48.82 47.96 47.12 47.64 47.86 47.45 46.61 45.66 45.87 46.05 45.60 46.11 45.99 46.41 48.22 49.92 51.96 54.02 56.04 58.11 61.81 62.42 64.28
44.54 41.31 38.85 36.18 42.59 42.92 39.12 43.19 44.33 45.43 46.49 45.69 42.21 46.11 49.90 48.61 48.94 49.60 49.64 49.28 48.52 47.92 47.15 47.24 46.87 47.43 47.37 46.09 46.23 45.02 44.87 45.04 44.75 45.06 46.08 47.61 49.19 50.73 53.16 56.32 57.64 61.75 61.66 63.64
44.58 42.47 41.59 37.10 40.06 31.02 43.20 48.67 48.04 45.75 45.97 46.93 46.32 48.01 48.87 48.80 49.96 50.82 50.96 48.75 47.96 47.72 47.30 47.78 47.68 47.49 46.87 46.88 45.68 44.61 44.00 43.72 43.90 44.44 45.29 46.81 48.48 49.63 52.14 54.75 55.20 58.98 62.92 62.10
48.74 43.64 39.24 35.85 35.87 39.34 42.33 45.81 45.41 44.47 43.31 48.00 46.18 47.14 48.63 49.27 49.85 49.44 50.28 50.45 49.09 48.31 49.14 50.23 48.76 47.65 46.29 45.09 44.51 43.42 42.44 42.60 42.92 43.03 43.88 45.77 46.56 48.37 49.84 51.43 54.05 57.77 62.12 60.60
47.44 46.31 40.41 38.19 33.67 30.67 41.43 47.86 49.03 47.13 39.55 49.03 48.69 47.35 47.81 48.74 43.40 46.45 51.19 50.78 48.84 49.32 51.16 50.51 48.74 46.84 45.56 44.43 43.45 42.29 41.44 41.49 41.36 42.71 43.21 44.97 46.06 47.35 48.66 50.78 53.69 55.55 62.50 61.26
39.84 41.11 36.53 37.09 35.62 39.01 46.06 48.30 49.59 37.01 41.97 49.87 49.11 48.77 48.73 47.84 50.34 50.67 50.82 49.22 50.27 51.50 50.88 49.63 48.04 45.22 44.53 43.75 42.77 41.14 40.97 40.41 41.87 42.97 44.20 44.68 45.37 46.56 49.03 51.06 53.78 55.80 60.80 60.44
39.73 37.01 37.16 38.48 35.70 32.35 48.40 47.79 42.42 48.24 51.96 50.11 49.40 49.42 49.52 50.58 51.11 50.36 48.97 49.70 49.71 49.01 48.41 48.27 46.21 44.62 44.25 43.02 41.80 40.36 39.86 41.42 42.61 42.92 43.82 44.66 46.04 47.32 50.04 51.56 55.36 56.10 60.06 60.62
36.06 42.98 41.87 41.22 41.48 49.15 50.37 51.06 53.55 52.34 49.52 49.88 50.09 50.96 51.15 50.30 49.89 48.94 49.28 49.12 49.02 48.34 47.92 47.45 45.94 44.34 43.22 42.21 41.65 39.58 40.36 42.00 41.92 43.02 43.19 45.62 51.06 49.46 50.57 52.05 54.46 57.69 60.30 61.19
44.85 48.34 43.65 43.87 45.95 47.73 50.54 52.63 52.73 52.39 51.41 51.99 52.09 51.75 51.71 50.01 49.59 48.80 48.82 48.60 47.81 47.40 46.92 46.62 45.24 43.44 41.32 41.28 41.05 40.60 41.56 42.00 42.43 42.29 42.87 45.58 47.82 51.99 52.31 56.23 56.95 59.16 58.78 60.35
43.68 44.99 43.14 44.37 48.20 48.71 49.52 51.20 51.76 52.60 53.37 51.82 52.33 51.77 50.88 49.71 48.75 48.73 48.30 47.49 46.84 46.99 46.51 46.67 44.90 43.08 41.66 40.71 40.39 40.90 41.20 41.50 41.95 42.41 43.01 44.82 47.17 49.54 53.22 51.65 50.88 52.30 46.99 48.84
43.13 44.24 42.56 41.83 49.01 48.94 49.00 52.04 52.57 50.74 51.10 52.07 51.22 50.91 50.66 49.89 48.71 48.87 47.32 47.24 46.68 45.38 46.64 46.14 45.05 43.38 42.46 40.37 39.92 40.55 40.99 41.21 42.28 41.98 41.54 43.11 46.18 47.25 49.53 50.94 53.00 39.80 40.93 39.50
MSLP
1005.93 1005.97 1005.24 1004.68 1004.48 1005.03 1005.41 1005.18 1004.63 1004.29 1004.16 1003.98 1003.81 1003.81 1003.70 1003.55 1003.64 1004.01 1004.71 1005.80 1006.77 1007.51 1008.09 1008.42 1008.70 1008.91 1009.10 1009.28 1009.28 1009.26 1009.25 1009.29 1009.14 1008.75 1008.16 1007.51 1006.82 1005.71 1004.38 1004.76 1004.82 1004.03 1003.53 1004.54
1005.88 1005.31 1004.95 1005.05 1005.66 1005.88 1006.04 1005.76 1005.09 1004.70 1004.21 1004.42 1004.21 1003.48 1003.24 1002.86 1002.98 1003.46 1004.57 1005.75 1006.62 1007.36 1007.80 1008.23 1008.54 1008.69 1008.77 1008.88 1009.05 1009.15 1009.02 1008.84 1008.80 1008.67 1008.24 1007.76 1007.19 1006.34 1005.13 1004.36 1004.11 1003.95 1003.58 1003.80
1005.15 1004.39 1005.15 1005.68 1005.86 1006.09 1006.03 1005.98 1005.51 1005.15 1005.14 1005.07 1004.14 1003.13 1001.95 1001.14 1002.34 1003.60 1004.87 1005.81 1006.50 1007.08 1007.68 1008.11 1008.26 1008.45 1008.33 1008.41 1008.63 1008.69 1008.57 1008.64 1008.51 1008.26 1008.02 1007.31 1006.73 1006.27 1005.13 1004.68 1004.01 1003.29 1002.95 1002.84
1004.60 1004.42 1004.82 1005.65 1005.86 1006.13 1005.77 1005.76 1006.04 1006.26 1006.15 1004.87 1003.65 1002.28 1001.69 1001.49 1002.38 1003.35 1004.31 1005.08 1005.84 1006.74 1007.57 1007.74 1007.94 1008.11 1008.26 1008.20 1008.12 1008.01 1007.91 1008.04 1008.12 1008.08 1007.63 1007.34 1007.07 1006.59 1005.95 1005.50 1004.72 1003.66 1003.16 1002.92
1005.03 1004.52 1005.17 1005.61 1005.59 1005.83 1005.83 1006.39 1006.81 1006.84 1006.30 1005.39 1003.94 1002.53 1000.54 1000.12 1001.36 1002.72 1003.19 1004.17 1005.58 1006.59 1007.21 1007.60 1007.74 1008.07 1008.11 1008.09 1007.92 1007.55 1007.38 1007.50 1007.65 1007.74 1007.49 1007.01 1006.60 1006.34 1006.14 1005.53 1004.36 1002.69 1002.72 1001.10
1005.32 1005.03 1005.57 1005.89 1005.88 1006.26 1006.92 1007.30 1007.12 1006.32 1005.84 1004.51 1002.64 1001.86 999.81 999.65 1000.47 1001.71 1003.15 1004.46 1005.62 1006.57 1007.19 1007.21 1007.50 1007.76 1007.71 1007.83 1007.92 1007.91 1007.29 1007.03 1007.05 1007.16 1006.75 1006.36 1006.00 1005.97 1005.75 1004.77 1003.79 1002.07 1001.60 1001.58
1004.75 1004.78 1005.20 1006.21 1006.30 1006.52 1007.01 1007.42 1006.71 1005.14 1004.47 1003.24 1001.64 1000.98 999.86 999.96 1000.62 1001.93 1003.60 1004.95 1005.84 1006.38 1006.59 1007.07 1007.40 1007.62 1007.80 1007.88 1008.15 1007.99 1007.59 1006.92 1006.55 1006.54 1006.05 1005.61 1005.16 1005.35 1005.01 1004.01 1002.80 1001.10 1000.64 1000.57
1004.33 1003.51 1004.20 1005.49 1006.33 1005.83 1006.03 1006.68 1006.93 1006.30 1004.70 1003.02 1002.02 1000.66 999.74 1000.68 1001.55 1003.05 1004.36 1005.22 1005.71 1005.89 1006.44 1007.06 1007.19 1007.47 1007.70 1007.81 1007.90 1007.84 1007.50 1006.94 1006.37 1005.91 1005.48 1004.68 1004.30 1004.18 1003.77 1003.40 1001.72 1000.23 999.27 999.16
1004.41 1003.51 1003.78 1005.12 1005.98 1006.68 1005.93 1006.86 1007.28 1007.26 1006.70 1005.41 1003.10 1000.98 1000.29 1001.75 1002.75 1003.52 1004.00 1004.60 1005.15 1005.73 1006.34 1006.75 1006.73 1007.19 1007.65 1007.80 1007.99 1007.93 1007.54 1006.86 1006.29 1005.45 1004.79 1003.88 1003.30 1002.80 1002.68 1002.34 1000.89 999.23 997.80 998.00
1005.68 1005.42 1004.89 1005.64 1006.61 1006.60 1007.01 1007.20 1007.74 1008.23 1007.27 1005.02 1002.10 1001.03 1000.78 1001.89 1002.43 1003.18 1004.02 1004.49 1005.10 1005.50 1006.03 1006.47 1006.54 1007.07 1007.59 1007.86 1007.97 1007.82 1007.64 1007.01 1006.15 1005.32 1004.24 1003.18 1002.56 1001.86 1001.41 1001.18 1000.12 998.41 997.80 997.34
1006.75 1007.05 1005.43 1005.41 1006.31 1005.97 1006.84 1007.30 1007.83 1007.99 1007.74 1006.31 1004.36 1002.17 1001.51 1002.25 1002.82 1003.52 1003.90 1004.28 1004.83 1005.32 1006.03 1006.34 1006.55 1007.10 1007.57 1008.06 1008.02 1008.06 1007.75 1007.07 1006.15 1005.27 1004.18 1003.09 1002.07 1001.30 1000.33 999.97 999.26 998.09 997.34 996.58
1007.33 1007.36 1006.86 1005.70 1005.63 1005.75 1005.59 1006.03 1006.63 1007.59 1007.57 1006.94 1005.79 1003.58 1002.87 1003.04 1003.33 1003.57 1003.72 1003.91 1004.55 1005.27 1005.91 1006.25 1006.56 1007.05 1007.67 1007.95 1008.09 1008.06 1007.65 1006.95 1006.04 1005.15 1004.09 1003.01 1001.98 1001.07 1000.10 999.29 998.56 998.14 997.25 996.04
1007.09 1007.89 1007.47 1006.10 1005.71 1005.39 1005.73 1006.05 1006.40 1006.58 1007.26 1006.86 1006.66 1004.03 1003.23 1003.14 1003.22 1003.13 1003.03 1003.43 1004.17 1004.86 1005.62 1006.25 1006.65 1007.35 1007.71 1007.90 1007.97 1007.85 1007.52 1006.92 1006.01 1004.99 1004.04 1002.74 1001.78 1000.69 999.92 998.96 997.96 997.52 997.00 996.05
1007.68 1007.89 1007.28 1006.01 1004.83 1005.09 1005.09 1005.25 1005.53 1005.97 1006.18 1006.14 1005.01 1004.11 1003.58 1003.06 1002.81 1002.61 1002.62 1003.35 1004.00 1004.77 1005.74 1006.44 1007.12 1007.59 1007.68 1007.79 1007.75 1007.71 1007.34 1006.73 1005.87 1004.90 1003.83 1002.55 1001.51 1000.37 999.66 998.82 997.71 997.33 996.69 996.20
1007.78 1008.11 1007.90 1006.88 1005.80 1005.28 1004.79 1004.43 1004.35 1004.29 1004.47 1004.33 1003.93 1003.51 1003.20 1002.54 1002.03 1002.44 1002.90 1003.44 1004.22 1005.12 1005.95 1006.90 1007.53 1007.45 1007.40 1007.57 1007.53 1007.33 1007.04 1006.54 1005.79 1004.76 1003.59 1002.41 1001.28 1000.04 998.99 998.32 997.38 996.74 996.56 996.07
1007.44 1008.15 1008.20 1007.10 1006.15 1005.12 1004.10 1003.54 1003.26 1003.13 1003.03 1002.65 1002.37 1001.53 1001.81 1001.61 1002.20 1002.70 1003.21 1004.07 1004.97 1005.59 1006.52 1007.41 1007.31 1007.38 1007.27 1007.48 1007.31 1007.15 1006.76 1006.40 1005.75 1004.59 1003.40 1002.25 1001.13 999.91 998.55 997.89 997.15 996.49 995.97 995.66
1006.60 1007.66 1008.26 1007.25 1006.52 1005.08 1003.27 1002.47 1001.98 1001.68 1001.83 1001.78 1001.30 1001.14 1001.37 1001.86 1002.61 1003.23 1004.13 1005.09 1005.61 1006.48 1007.01 1007.15 1007.38 1007.43 1007.58 1007.53 1007.32 1007.06 1006.77 1006.21 1005.42 1004.36 1003.12 1002.02 1000.86 999.80 998.34 997.16 996.43 995.76 995.54 994.88
1005.79 1006.91 1007.63 1007.50 1006.99 1005.03 1002.66 1001.94 1001.71 1001.83 1002.07 1002.03 1001.71 1001.62 1002.02 1002.69 1003.43 1004.10 1004.95 1005.75 1006.42 1006.89 1007.20 1007.15 1007.16 1007.47 1007.71 1007.56 1007.59 1007.34 1006.89 1006.09 1005.16 1003.98 1002.88 1001.74 1000.71 999.62 998.33 996.95 996.21 995.72 995.03 994.72
1004.73 1006.03 1007.16 1007.69 1006.83 1004.98 1003.16 1002.43 1002.14 1001.94 1002.17 1002.47 1002.40 1002.39 1002.70 1003.56 1003.99 1004.54 1005.48 1006.22 1006.76 1007.12 1007.16 1006.89 1007.24 1007.65 1007.90 1007.97 1007.83 1007.49 1006.78 1005.88 1004.93 1003.83 1002.71 1001.53 1000.76 999.72 998.56 997.56 995.94 995.48 994.64 994.05
1003.97 1005.04 1006.47 1007.37 1006.54 1004.86 1003.57 1002.59 1003.04 1002.97 1002.65 1002.01 1002.39 1003.11 1003.54 1003.88 1004.22 1005.01 1005.58 1006.29 1006.86 1006.99 1006.68 1006.68 1007.14 1007.67 1008.12 1008.11 1007.85 1007.28 1006.53 1005.66 1004.69 1003.58 1002.48 1001.39 1000.41 999.57 998.65 997.49 996.26 995.45 994.53 993.96
1003.24 1004.12 1004.98 1005.89 1005.75 1003.95 1003.12 1002.68 1003.17 1003.36 1002.78 1002.62 1003.02 1003.40 1003.68 1003.98 1004.55 1005.10 1005.80 1006.27 1006.36 1006.08 1006.24 1006.59 1007.22 1007.97 1008.36 1008.29 1007.82 1007.17 1006.39 1005.50 1004.50 1003.23 1001.95 1000.80 999.80 998.95 998.20 997.18 996.15 995.32 994.24 993.67
1002.87 1003.34 1004.18 1004.94 1004.70 1003.52 1002.80 1002.60 1002.83 1002.49 1002.55 1002.76 1003.01 1003.33 1003.64 1003.95 1004.40 1005.09 1005.68 1005.54 1005.62 1005.79 1006.07 1006.59 1007.33 1008.13 1008.44 1008.30 1007.83 1007.09 1006.17 1005.26 1004.09 1002.72 1001.30 999.87 998.54 997.92 997.28 996.63 995.76 994.95 993.84 993.41
1003.85 1002.73 1002.50 1003.05 1002.10 1002.24 1002.02 1002.03 1002.09 1002.60 1002.59 1002.79 1003.04 1003.34 1003.60 1003.97 1004.38 1005.09 1005.02 1005.27 1005.41 1005.71 1006.11 1006.77 1007.39 1008.18 1008.47 1008.15 1007.82 1007.04 1006.06 1005.01 1003.60 1002.23 1000.81 999.26 997.53 997.03 996.67 996.24 995.66 994.73 993.78 993.28
1002.97 1002.32 1002.04 1002.10 1001.57 1001.32 1001.46 1001.57 1001.74 1002.21 1002.55 1002.60 1002.78 1003.03 1003.51 1003.83 1004.43 1004.65 1004.84 1005.18 1005.42 1005.69 1006.07 1006.73 1007.45 1008.18 1008.39 1008.12 1007.72 1007.06 1006.03 1005.01 1003.71 1002.18 1000.81 999.39 997.67 996.54 996.41 995.76 995.35 994.72 994.80 994.40
1004.10 1003.18 1002.25 1001.44 1000.72 1000.89 1000.74 1000.95 1001.17 1001.42 1001.99 1002.42 1002.53 1003.10 1003.68 1004.04 1004.33 1004.57 1004.88 1005.22 1005.52 1005.82 1006.31 1006.60 1007.41 1008.11 1008.28 1008.15 1007.67 1006.91 1005.99 1005.06 1003.89 1002.48 1001.39 1000.06 998.55 997.46 996.53 996.72 996.57 996.34 997.17 997.28
1004.07 1002.39 1001.49 1001.28 1000.59 1000.20 1000.66 1001.08 1001.05 1001.25 1001.59 1001.76 1002.42 1003.11 1003.58 1003.95 1004.35 1004.74 1005.10 1005.42 1005.72 1006.17 1006.24 1006.44 1007.24 1007.96 1008.13 1008.16 1007.71 1006.91 1006.03 1005.11 1003.98 1002.98 1002.10 1000.40 999.72 998.72 997.94 997.44 997.20 998.01 998.50 998.59
Wind_Speed
15 8 11 16 5 7 9 11 14 12 13 16 15 18 18 17 16 12 9 6 3 4 5 7 8 8 8 8 10 8 8 9 7 9 10 10 11 12 9 9 19 20 16 19
7 15 17 4 1 6 9 13 14 15 14 9 16 21 21 18 13 12 9 7 6 5 6 8 9 9 8 7 8 11 10 9 7 9 9 10 12 14 13 9 14 24 18 21
16 12 7 2 7 10 12 14 15 14 14 18 23 22 23 22 9 9 9 9 6 5 7 9 10 11 11 9 8 10 8 9 11 9 10 11 11 12 13 12 13 16 21 24
12 13 9 9 11 11 15 9 7 11 14 14 11 15 18 9 15 13 16 15 10 2 6 10 12 13 13 13 11 10 8 6 11 12 11 14 11 13 13 14 15 16 17 24
8 10 8 13 13 9 10 10 11 15 17 18 21 13 14 15 17 17 20 12 4 2 8 13 14 13 14 14 16 13 7 5 9 13 16 11 14 11 11 14 21 15 11 16
18 10 4 9 13 3 8 11 18 21 17 15 21 16 11 5 11 10 10 6 2 6 11 13 15 15 14 14 14 17 13 10 8 13 17 13 15 13 13 15 15 13 11 13
19 20 15 8 10 12 13 9 6 6 11 13 10 6 12 7 11 9 8 3 3 7 11 15 17 17 15 15 14 14 18 17 12 14 16 16 14 13 15 16 14 16 10 10
15 15 21 15 14 7 11 10 6 5 5 11 18 7 3 12 13 13 5 2 7 10 13 16 17 14 16 15 14 13 16 20 18 14 18 14 15 8 9 14 13 13 13 12
10 17 14 11 8 6 8 8 2 7 9 12 11 11 9 14 10 7 5 3 10 12 11 16 15 13 14 14 13 12 16 18 21 16 16 15 15 9 11 15 13 11 17 15
5 9 11 13 6 12 9 5 4 4 6 7 7 9 6 11 5 4 4 9 10 11 12 15 14 12 12 14 14 16 18 20 21 21 17 15 14 15 10 11 14 12 11 13
9 5 6 12 12 14 10 11 8 6 7 5 6 4 6 10 8 3 9 12 13 12 14 15 13 14 15 16 16 16 17 20 19 19 20 20 16 16 11 9 11 9 13 16
13 6 10 15 14 18 16 15 15 7 8 9 11 14 6 2 1 7 11 7 6 9 12 14 15 14 16 15 16 15 15 17 18 18 19 20 19 17 15 9 9 11 7 12
8 6 7 11 15 10 9 14 14 12 9 14 10 7 5 7 9 13 15 9 10 12 13 14 14 15 15 14 13 15 16 17 19 18 19 20 18 17 15 16 7 9 8 10
1 9 11 8 10 3 13 15 15 16 12 13 20 24 22 19 18 19 11 11 12 11 14 14 14 16 14 12 15 15 15 16 17 19 19 20 18 19 15 15 11 7 7 9
8 12 16 20 22 18 17 19 19 20 20 20 20 25 22 20 17 11 9 12 13 14 13 14 16 15 15 14 14 15 15 15 16 18 19 19 19 19 17 15 14 7 7 7
12 12 15 20 20 21 22 21 22 23 24 26 25 25 19 14 14 14 14 14 14 13 13 15 15 17 16 15 15 15 15 16 17 19 19 19 19 19 18 14 14 6 7 6
18 13 11 16 17 20 20 20 21 19 20 18 20 18 12 13 14 13 13 13 11 12 13 15 15 14 14 15 14 16 16 16 17 19 19 18 18 19 19 15 13 7 6 7
15 18 11 11 12 13 11 5 6 8 10 14 14 11 10 10 11 12 11 8 9 13 14 14 11 12 15 16 16 15 15 16 17 17 19 18 18 18 18 16 14 14 3 5
16 15 6 7 10 15 20 12 6 14 10 11 10 10 7 10 11 9 5 8 11 12 12 9 9 12 13 16 15 14 15 15 16 17 18 17 17 18 17 18 14 12 5 5
18 13 10 7 6 8 7 6 4 5 6 3 5 1 7 10 9 8 10 10 11 13 12 9 8 10 13 14 15 15 15 15 16 17 19 18 17 17 17 16 15 11 8 3
18 17 19 14 10 9 11 15 9 4 1 7 0 5 8 7 3 5 7 10 12 9 10 9 10 10 14 13 14 15 15 15 17 18 18 18 16 15 16 15 13 12 12 6
15 14 12 14 14 20 6 7 9 1 5 3 4 7 8 9 6 6 9 10 10 11 12 10 9 11 12 12 12 15 15 17 17 18 17 17 16 12 11 12 13 11 12 7
8 8 8 14 7 5 5 8 10 5 3 5 5 7 7 8 6 7 8 9 10 11 10 9 8 11 11 12 12 15 16 16 19 17 17 16 15 10 10 11 9 10 7 4
8 11 8 10 12 11 12 10 7 7 11 10 9 7 7 5 5 7 7 9 9 9 9 8 9 12 11 12 13 13 14 15 16 17 17 16 14 6 8 6 5 5 4 6
11 3 5 8 8 10 8 11 7 12 11 12 10 3 5 5 6 6 7 8 9 9 9 7 7 11 11 12 13 14 15 15 13 14 14 13 11 12 5 4 5 6 6 4
11 12 9 5 12 8 9 11 8 4 7 8 4 5 5 4 4 5 7 7 8 9 8 8 8 11 11 11 13 13 14 15 14 12 10 10 9 8 9 9 5 10 8 6
Wind_Direction
202 265 253 255 226 9 318 291 278 280 277 269 276 281 272 276 265 248 222 206 244 291 322 327 337 334 327 324 312 302 294 290 298 291 298 295 287 282 270 238 243 267 200 200
224 250 250 59 351 295 295 279 277 271 266 275 271 273 279 267 253 234 198 209 231 274 308 334 324 320 314 307 315 305 297 292 305 302 300 303 294 290 286 270 244 241 236 195
254 279 83 217 268 271 247 257 264 289 318 292 268 263 264 234 198 177 195 221 221 264 316 311 325 325 313 313 303 296 292 307 296 291 294 284 294 307 278 261 262 251 252 209
264 259 207 237 252 263 266 252 310 283 284 277 322 290 292 193 189 202 208 209 214 327 305 307 328 333 330 319 309 284 282 295 303 308 297 293 293 289 289 297 286 244 240 258
266 221 202 234 247 277 268 317 300 281 276 277 268 265 260 252 185 202 224 182 110 287 305 329 330 329 320 321 323 314 306 302 295 293 290 284 283 283 295 288 281 246 238 257
258 278 273 280 273 249 270 284 274 254 247 251 258 237 273 179 201 156 102 121 99 345 328 310 340 331 325 325 324 327 316 303 301 298 280 275 278 288 286 281 289 241 236 213
233 232 223 224 247 233 226 253 285 285 211 235 249 271 259 289 181 122 105 102 6 321 305 345 329 331 331 336 336 320 318 312 300 290 284 282 277 270 281 285 285 254 212 200
279 211 199 171 225 295 205 240 239 260 265 318 323 257 262 78 84 95 113 172 244 339 341 332 321 334 325 328 318 308 310 308 301 292 289 285 279 259 279 281 275 284 220 213
305 240 154 154 190 208 222 221 273 320 295 260 241 267 118 117 124 164 209 356 337 325 332 324 321 335 334 331 324 315 306 303 304 304 293 287 292 262 271 280 284 287 241 216
284 269 194 188 213 229 234 11 209 195 252 261 267 307 307 146 176 89 345 317 338 316 336 324 330 346 332 336 328 327 321 311 309 311 301 295 300 294 269 282 285 283 262 236
250 214 254 161 203 226 184 228 224 250 262 267 303 271 115 1 353 19 310 317 318 345 334 326 337 337 334 333 330 323 316 312 309 305 308 308 304 302 290 280 290 288 322 222
224 235 253 223 220 219 237 221 210 207 233 227 265 276 322 7 12 282 271 281 349 346 328 329 331 345 337 327 328 317 307 306 306 309 309 307 306 305 306 290 299 292 289 252
185 235 238 247 249 182 227 245 248 255 238 248 260 256 158 215 244 276 313 340 334 333 342 334 347 336 336 324 322 321 319 313 308 311 308 305 303 302 307 311 308 296 296 300
88 237 226 250 168 236 219 220 227 231 239 245 243 268 279 292 300 290 319 347 326 351 345 335 347 327 333 321 328 319 312 311 313 310 308 306 307 306 304 298 298 284 277 304
192 244 255 255 269 271 259 256 253 244 239 234 257 262 275 272 284 342 332 329 347 341 343 348 331 319 328 326 324 317 316 313 312 308 305 306 306 301 302 305 304 293 284 278
180 237 251 259 259 259 259 258 257 256 257 259 265 269 276 291 344 331 331 354 341 339 349 329 325 325 331 331 325 322 319 315 312 305 305 305 303 300 299 294 292 273 289 297
202 204 239 263 272 271 261 251 256 259 251 260 260 274 313 332 325 337 352 336 341 343 328 327 327 325 331 328 329 321 321 312 308 304 303 303 304 303 298 296 296 274 288 302
209 212 222 252 289 268 251 247 282 275 281 294 298 312 313 325 340 336 336 8 341 338 327 317 322 336 331 329 330 323 317 312 309 304 306 305 303 302 303 299 300 305 287 291
203 192 225 233 225 268 297 296 281 261 251 285 286 293 334 331 313 320 57 360 349 329 311 309 357 340 343 330 325 318 315 312 309 306 301 305 306 304 301 309 293 299 275 295
197 204 184 198 220 230 232 121 51 6 271 227 165 358 302 312 299 301 333 353 326 308 291 348 358 353 341 328 322 318 316 315 310 309 306 299 295 289 289 292 296 301 281 264
207 205 208 211 233 253 240 276 124 249 139 141 227 308 288 295 317 344 354 314 282 299 343 352 14 355 337 326 322 317 319 317 310 306 301 295 285 278 278 278 285 288 287 254
211 196 212 208 227 241 239 192 203 133 147 216 299 316 309 313 337 356 309 292 325 338 340 8 7 348 337 325 322 320 321 318 312 309 304 296 275 262 264 274 283 271 272 277
205 257 169 186 205 193 248 247 203 225 270 299 299 300 306 310 321 305 301 320 337 335 340 14 1 347 337 331 329 319 322 320 319 319 318 319 317 254 252 249 263 263 252 276
204 231 209 194 223 214 211 232 172 204 245 261 299 305 308 294 307 305 328 332 330 343 340 3 4 344 336 335 328 324 323 326 324 328 327 324 330 276 262 272 261 255 350 4
275 148 303 273 219 188 217 224 235 224 225 244 261 281 288 314 298 320 333 331 338 342 348 359 17 346 340 336 330 330 331 330 333 331 329 333 341 351 1 89 13 27 51 9
257 229 203 198 243 236 212 255 305 277 299 228 246 258 233 252 317 340 335 339 352 339 321 1 18 346 348 339 331 336 335 333 332 337 342 333 344 356 3 360 19 80 98 110